Bogalusa, LA

12:45 PM CST on February 23, 2017 (GMT -0600)
Carr Memorial

Weather History for KBXA - March, 2014

Change the Weather History Date:

Friday, March 14, 2014

  Actual Average Record
Temperature  
Mean Temperature 52 °F -  
Max Temperature 71 °F 70 °F 86 °F (2016)
Min Temperature 34 °F 49 °F 32 °F (2013)
Degree Days  
Heating Degree Days 12    
Growing Degree Days 2 (Base 50)    
Moisture  
Dew Point 42 °F    
Average Humidity 68    
Maximum Humidity 92    
Minimum Humidity 36    
Precipitation  
Precipitation 0.00 in - - ()
Sea Level Pressure  
Sea Level Pressure 30.21 in    
Wind  
Wind Speed 3 mph (South)    
Max Wind Speed 15 mph    
Max Gust Speed 21 mph    
Visibility 10 miles    
Events      
Averages and records for this station are not official NWS values.
T = Trace of Precipitation, MM = Missing Value Source: NWS Daily Summary

Daily Weather History Graph

Daily Weather History Graph

Search for Another Location

Airport or City:

Trip Planner

Search our weather history database for the weather conditions in past years. The results will help you decide how hot, cold, wet, or windy it might be!

Date:

Astronomy

Mar. 14, 2014 Rise Set
Actual Time 7:10 AM CDT 7:07 PM CDT
Civil Twilight 6:46 AM CDT 7:31 PM CDT
Nautical Twilight 6:18 AM CDT 7:59 PM CDT
Astronomical Twilight 5:50 AM CDT 8:27 PM CDT
Moon 5:33 PM CDT (3/14) 5:44 AM CDT (3/14)
Length of Visible Light 12h 44m
Length of Day
11h 56m
Waxing Gibbous, 96% of the Moon is Illuminated
Mar 14
Waxing Gibbous
Mar 16
Full
Mar 23
Last Quarter
Mar 30
New
Apr 7
First Quarter

Hourly Weather History & Observations

Time (CDT) Temp. Windchill Dew Point Humidity Pressure Visibility Wind Dir Wind Speed Gust Speed Precip Events Conditions
12:15 AM 42.1 °F - 37.9 °F 85% 30.23 in 10.0 mi Calm Calm - N/A   Unknown
12:35 AM 40.8 °F - 37.2 °F 87% 30.23 in 10.0 mi Calm Calm - N/A   Unknown
12:55 AM 40.3 °F - 37.0 °F 88% 30.23 in 10.0 mi Calm Calm - N/A   Unknown
1:15 AM 39.6 °F - 36.3 °F 88% 30.23 in 10.0 mi Calm Calm - N/A   Unknown
1:35 AM 39.9 °F - 36.7 °F 88% 30.23 in 10.0 mi Calm Calm - N/A   Unknown
1:55 AM 40.1 °F - 36.9 °F 88% 30.23 in 10.0 mi Calm Calm - N/A   Unknown
2:15 AM 40.3 °F - 36.7 °F 87% 30.23 in 10.0 mi Calm Calm - N/A   Unknown
2:35 AM 38.7 °F 36.3 °F 35.4 °F 88% 30.23 in 10.0 mi North 3.5 mph - N/A   Unknown
2:55 AM 37.8 °F - 34.9 °F 89% 30.23 in 10.0 mi Calm Calm - N/A   Unknown
3:15 AM 38.3 °F - 35.6 °F 90% 30.23 in 10.0 mi Calm Calm - N/A   Unknown
3:35 AM 38.3 °F - 35.2 °F 89% 30.22 in 10.0 mi Calm Calm - N/A   Unknown
3:55 AM 37.9 °F - 35.2 °F 90% 30.22 in 10.0 mi Calm Calm - N/A   Unknown
4:15 AM 37.4 °F - 34.7 °F 90% 30.21 in 10.0 mi Calm Calm - N/A   Unknown
4:35 AM 37.4 °F - 34.3 °F 89% 30.21 in 10.0 mi Calm Calm - N/A   Unknown
4:55 AM 36.1 °F - 33.3 °F 89% 30.22 in 10.0 mi Calm Calm - N/A   Unknown
5:15 AM 35.6 °F - 32.9 °F 90% 30.22 in 10.0 mi Calm Calm - N/A   Unknown
5:35 AM 35.6 °F - 33.1 °F 91% 30.22 in 10.0 mi Calm Calm - N/A   Unknown
5:55 AM 35.2 °F - 32.9 °F 91% 30.22 in 10.0 mi Calm Calm - N/A   Unknown
6:15 AM 35.1 °F - 32.7 °F 91% 30.22 in 10.0 mi Calm Calm - N/A   Unknown
6:35 AM 34.7 °F - 32.2 °F 91% 30.24 in 10.0 mi Calm Calm - N/A   Unknown
6:55 AM 34.7 °F - 32.2 °F 91% 30.25 in 10.0 mi Calm Calm - N/A   Unknown
7:15 AM 35.1 °F - 32.7 °F 91% 30.25 in 4.0 mi Calm Calm - N/A   Mist
7:35 AM 35.1 °F - 32.9 °F 92% 30.27 in 5.0 mi Calm Calm - N/A   Mist
7:55 AM 35.8 °F - 33.8 °F 92% 30.28 in 2.5 mi Calm Calm - N/A   Mist
8:15 AM 39.7 °F - 37.6 °F 92% 30.28 in 5.0 mi Calm Calm - N/A   Mist
8:35 AM 42.6 °F - 40.1 °F 91% 30.28 in 10.0 mi Calm Calm - N/A   Unknown
8:55 AM 46.0 °F - 42.3 °F 87% 30.28 in 10.0 mi Calm Calm - N/A   Unknown
9:15 AM 49.5 °F - 43.2 °F 79% 30.29 in 10.0 mi Calm Calm - N/A   Unknown
9:35 AM 52.7 °F - 43.7 °F 71% 30.29 in 10.0 mi North - - N/A   Unknown
9:55 AM 55.8 °F - 44.1 °F 65% 30.29 in 10.0 mi Calm Calm - N/A   Unknown
10:15 AM 57.9 °F - 44.4 °F 61% 30.29 in 10.0 mi Calm Calm - N/A   Unknown
10:35 AM 60.3 °F - 43.3 °F 54% 30.28 in 10.0 mi SE 3.5 mph - N/A   Unknown
10:55 AM 62.6 °F - 42.1 °F 47% 30.27 in 10.0 mi SSE 9.2 mph 16.1 mph N/A   Unknown
11:15 AM 63.7 °F - 41.4 °F 44% 30.27 in 10.0 mi SSE 9.2 mph - N/A   Unknown
11:35 AM 64.4 °F - 42.4 °F 45% 30.27 in 10.0 mi SSE 9.2 mph - N/A   Unknown
11:55 AM 66.7 °F - 42.4 °F 41% 30.26 in 10.0 mi SSW 11.5 mph 18.4 mph N/A   Unknown
12:15 PM 67.1 °F - 42.4 °F 41% 30.26 in 10.0 mi South 8.1 mph - N/A   Unknown
12:35 PM 68.2 °F - 40.6 °F 37% 30.25 in 10.0 mi South 13.8 mph 17.3 mph N/A   Unknown
1:00 PM 69.1 °F - 42.4 °F 38% 30.24 in 10.0 mi South 11.5 mph 16.1 mph N/A   Unknown
1:15 PM 70.0 °F - 42.3 °F 37% 30.24 in 10.0 mi SSW 11.5 mph 17.3 mph N/A   Unknown
1:35 PM 71.8 °F - 43.7 °F 36% 30.22 in 10.0 mi SSW 9.2 mph - N/A   Unknown
1:55 PM 71.2 °F - 43.5 °F 37% 30.21 in 10.0 mi SSW 13.8 mph 17.3 mph N/A   Unknown
2:15 PM 70.5 °F - 43.0 °F 37% 30.20 in 10.0 mi South 8.1 mph - N/A   Unknown
2:35 PM 71.2 °F - 44.8 °F 39% 30.20 in 10.0 mi SW 15.0 mph 20.7 mph N/A   Unknown
2:55 PM 71.1 °F - 45.1 °F 39% 30.18 in 10.0 mi SSW 15.0 mph 18.4 mph N/A   Unknown
3:15 PM 69.1 °F - 45.9 °F 43% 30.18 in 10.0 mi SSW 12.7 mph 17.3 mph N/A   Unknown
3:35 PM 68.5 °F - 46.6 °F 45% 30.17 in 10.0 mi SSW 12.7 mph - N/A   Unknown
3:55 PM 69.3 °F - 46.6 °F 44% 30.16 in 10.0 mi South 11.5 mph 16.1 mph N/A   Unknown
4:15 PM 69.1 °F - 46.6 °F 45% 30.16 in 10.0 mi South 9.2 mph 16.1 mph N/A   Unknown
4:35 PM 70.7 °F - 46.2 °F 42% 30.15 in 10.0 mi SSW 10.4 mph 17.3 mph N/A   Unknown
4:55 PM 70.7 °F - 46.4 °F 42% 30.15 in 10.0 mi SW 11.5 mph 18.4 mph N/A   Unknown
5:15 PM 69.4 °F - 47.3 °F 45% 30.15 in 10.0 mi SW 11.5 mph - N/A   Unknown
5:35 PM 68.5 °F - 47.5 °F 47% 30.15 in 10.0 mi SW 9.2 mph - N/A   Unknown
5:55 PM 68.5 °F - 48.2 °F 48% 30.14 in 10.0 mi SSW 8.1 mph - N/A   Unknown
6:15 PM 67.5 °F - 48.6 °F 51% 30.14 in 10.0 mi South 11.5 mph 17.3 mph N/A   Unknown
6:35 PM 66.9 °F - 49.5 °F 53% 30.14 in 10.0 mi South 9.2 mph - N/A   Unknown
6:55 PM 65.5 °F - 49.6 °F 57% 30.14 in 10.0 mi South 6.9 mph - N/A   Unknown
7:15 PM 63.5 °F - 49.6 °F 61% 30.14 in 10.0 mi SSE 5.8 mph - N/A   Unknown
7:35 PM 63.0 °F - 50.2 °F 63% 30.15 in 10.0 mi SSE 6.9 mph - N/A   Unknown
7:55 PM 63.0 °F - 50.9 °F 65% 30.14 in 10.0 mi SSE 6.9 mph - N/A   Unknown
8:15 PM 62.6 °F - 50.9 °F 66% 30.14 in 10.0 mi SSE 5.8 mph - N/A   Unknown
8:35 PM 62.2 °F - 50.7 °F 66% 30.15 in 10.0 mi SSE 8.1 mph - N/A   Unknown
8:55 PM 61.5 °F - 50.5 °F 67% 30.15 in 10.0 mi SSE 5.8 mph - N/A   Unknown
9:15 PM 61.0 °F - 50.5 °F 68% 30.15 in 10.0 mi SE 4.6 mph - N/A   Clear
9:35 PM 60.1 °F - 50.9 °F 72% 30.16 in 10.0 mi SSE 4.6 mph - N/A   Clear
9:55 PM 59.5 °F - 50.7 °F 73% 30.16 in 10.0 mi SE 3.5 mph - N/A   Unknown
10:15 PM 58.5 °F - 50.4 °F 74% 30.16 in 10.0 mi Calm Calm - N/A   Unknown
10:35 PM 55.9 °F - 50.2 °F 81% 30.16 in 10.0 mi Calm Calm - N/A   Unknown
10:55 PM 54.3 °F - 49.6 °F 84% 30.16 in 10.0 mi Calm Calm - N/A   Unknown
11:15 PM 54.1 °F - 49.8 °F 85% 30.15 in 10.0 mi Calm Calm - N/A   Unknown
11:35 PM 53.6 °F - 49.6 °F 86% 30.15 in 10.0 mi Calm Calm - N/A   Unknown
11:55 PM 54.1 °F - 50.4 °F 87% 30.14 in 10.0 mi Calm Calm - N/A   Unknown